EW4706 Weather Reports


Display with metric or nautical units.
time (UTC)temp
F
wind
direction
speed
MPH
gust
MPH
rain 1hr
in
rain 24hr
in
rain mn
in
humidity
%
barometer
mb
20260505210033 79 185 4.0 11.0 0.00 0.00 0.00 33 1009.9
20260505204531 79 218 3.0 14.0 0.00 0.00 0.00 32 1010.0
20260505203031 79 219 8.0 17.0 0.00 0.00 0.00 33 1010.0
20260505201531 79 218 10.0 20.0 0.00 0.00 0.00 32 1010.2
20260505200034 79 143 6.0 18.0 0.00 0.00 0.00 34 1010.2
20260505194528 79 152 10.0 23.0 0.00 0.00 0.00 35 1010.3
20260505193027 80 208 5.0 24.0 0.00 0.00 0.00 32 1010.4
20260505191526 80 188 7.0 19.0 0.00 0.00 0.00 35 1010.5
20260505190024 80 305 6.0 21.0 0.00 0.00 0.00 33 1010.8
20260505184527 79 176 5.0 15.0 0.00 0.00 0.00 33 1011.0
20260505183038 80 170 7.0 22.0 0.00 0.00 0.00 34 1011.0
20260505181517 79 139 10.0 21.0 0.00 0.00 0.00 38 1011.3
20260505180017 79 236 7.0 19.0 0.00 0.00 0.00 38 1011.6
20260505174517 79 169 8.0 23.0 0.00 0.00 0.00 40 1011.5
20260505173020 78 229 2.0 15.0 0.00 0.00 0.00 44 1011.5
20260505171510 78 255 4.0 16.0 0.00 0.00 0.00 41 1011.8
20260505170010 77 210 3.0 8.0 0.00 0.00 0.00 44 1012.0
20260505164506 77 300 2.0 11.0 0.00 0.00 0.00 43 1012.2
20260505163002 76 302 3.0 11.0 0.00 0.00 0.00 46 1012.5
20260505161501 76 229 4.0 8.0 0.00 0.00 0.00 45 1012.7
20260505160109 75 248 1.0 9.0 0.00 0.00 0.00 46 1012.8
20260505153058 74 157 3.0 9.0 0.00 0.00 0.00 46 1013.3
20260505151556 73 278 3.0 11.0 0.00 0.00 0.00 48 1013.3
20260505124530 64 214 3.0 7.0 0.00 0.00 0.00 62 1013.7
20260505123028 64 292 3.0 6.0 0.00 0.00 0.00 63 1013.4
20260505121526 63 165 3.0 6.0 0.00 0.00 0.00 64 1013.3
20260505120021 61 158 2.0 7.0 0.00 0.00 0.00 67 1013.4
20260505114517 60 219 3.0 9.0 0.00 0.00 0.00 69 1013.5
20260505113014 58 167 0.0 7.0 0.00 0.00 0.00 76 1013.6
20260505111514 56 165 3.0 6.0 0.00 0.00 0.00 78 1013.5
20260505101513 58 191 2.0 10.0 0.00 0.00 0.00 72 1013.7
20260505100007 58 255 1.0 6.0 0.00 0.00 0.00 67 1013.7
20260505094507 58 269 2.0 8.0 0.00 0.00 0.00 66 1013.5
20260505093001 58 127 0.0 5.0 0.00 0.00 0.00 66 1013.3
20260505091613 57 290 0.0 6.0 0.00 0.00 0.00 67 1013.0
20260505090059 57 157 0.0 4.0 0.00 0.00 0.00 67 1012.8
20260505084558 57 197 2.0 5.0 0.00 0.00 0.00 67 1012.6
20260505083057 57 195 2.0 5.0 0.00 0.00 0.00 67 1012.7
20260505081557 57 174 2.0 4.0 0.00 0.00 0.00 66 1012.8
20260505080105 57 307 1.0 4.0 0.00 0.00 0.00 65 1012.6
20260505074554 57 268 0.0 6.0 0.00 0.00 0.00 64 1012.8
20260505073055 57 259 0.0 4.0 0.00 0.00 0.00 65 1012.8
20260505071551 57 162 0.0 3.0 0.00 0.00 0.00 64 1012.7
20260505070054 57 156 2.0 7.0 0.00 0.00 0.00 64 1012.8
20260505064547 57 178 0.0 4.0 0.00 0.00 0.00 63 1012.9
20260505063107 58 169 3.0 7.0 0.00 0.00 0.00 61 1012.9
20260505061545 58 224 3.0 8.0 0.00 0.00 0.00 61 1012.9
20260505060044 58 163 3.0 9.0 0.00 0.00 0.00 61 1013.0
20260505054542 57 198 3.0 7.0 0.00 0.00 0.00 61 1013.0
20260505053049 58 188 2.0 7.0 0.00 0.00 0.00 60 1013.0
20260505051541 58 157 2.0 8.0 0.00 0.00 0.00 59 1013.1
20260505041546 58 162 6.0 13.0 0.00 0.00 0.00 55 1013.1
20260505040037 59 143 5.0 11.0 0.00 0.00 0.00 54 1013.1
20260505034528 59 156 6.0 10.0 0.00 0.00 0.00 54 1013.1
20260505033025 59 189 7.0 11.0 0.00 0.00 0.00 53 1013.2
20260505031536 59 135 4.0 10.0 0.00 0.00 0.00 52 1013.3
20260505030024 60 176 4.0 10.0 0.00 0.00 0.00 51 1013.5
20260505024524 60 174 4.0 11.0 0.00 0.00 0.00 50 1013.5
20260505023023 60 176 5.0 8.0 0.00 0.00 0.00 50 1013.5
20260505021522 61 176 4.0 6.0 0.00 0.00 0.00 49 1013.6
20260505020021 62 195 3.0 7.0 0.00 0.00 0.00 47 1013.6
20260505014528 62 133 3.0 8.0 0.00 0.00 0.00 47 1013.6
20260505013020 62 185 3.0 7.0 0.00 0.00 0.00 47 1013.5
20260505011520 62 189 4.0 8.0 0.00 0.00 0.00 47 1013.4
20260505010024 62 133 3.0 10.0 0.00 0.00 0.00 47 1013.1
20260505004522 63 211 3.0 5.0 0.00 0.00 0.00 47 1013.0
20260505003018 64 154 2.0 11.0 0.00 0.00 0.00 46 1013.0
20260505001517 64 202 3.0 9.0 0.00 0.00 0.00 45 1012.8
20260505000017 65 224 4.0 8.0 0.00 0.00 0.00 44 1012.5
20260504234516 65 198 3.0 7.0 0.00 0.00 0.00 43 1012.4
20260504233015 66 206 2.0 11.0 0.00 0.00 0.00 42 1012.1
20260504231515 67 169 3.0 14.0 0.00 0.00 0.00 41 1011.9
20260504230014 67 206 6.0 12.0 0.00 0.00 0.00 40 1011.8
20260504224518 68 217 6.0 13.0 0.00 0.00 0.00 38 1011.9
20260504223025 68 174 3.0 8.0 0.00 0.00 0.00 38 1011.9
20260504221511 69 180 1.0 7.0 0.00 0.00 0.00 38 1012.0
20260504220016 69 261 3.0 14.0 0.00 0.00 0.00 36 1012.1
20260504214511 69 271 2.0 11.0 0.00 0.00 0.00 37 1012.2
20260504213020 70 224 3.0 9.0 0.00 0.00 0.00 36 1012.4
20260504211507 70 178 1.0 8.0 0.00 0.00 0.00 36 1012.4